NWS Melbourne » East Central Florida Hourly Weather Roundup

MIARWRMLB 000
TTAA00 KMLB 231011
HOURLY WEATHER ROUNDUP AROUND FLORIDA
NATIONAL WEATHER SERVICE OFFICE MELBOURNE FL
600 AM EDT THU OCT 23 2014
  
CITY           SKY/WX    TMP DP  RH WIND       PRES   REMARKS
MELBOURNE      MOCLDY    74  59  59 NE13      29.94S                  
FORT PIERCE    CLOUDY    74  63  68 NE6       29.92S                  
ORLANDO INTL   PTCLDY    62  58  86 N8        29.97S                  
DAYTONA BEACH  MOCLDY    59  55  87 W3        29.98S                  
VERO BEACH     CLOUDY    72  62  71 NE9       29.93S                  
$$
...ELSEWHERE ACROSS CENTRAL FLORIDA...
  
CITY           SKY/WX    TMP DP  RH WIND       PRES   REMARKS
PATRICK AFB    PTCLDY    73  60  63 NE8G18    29.95S                  
JFK SPACE CTR  PTCLDY    67  57  71 NE5       29.96R                  
CAPE CANAVERAL PTCLDY    70  56  62 NE7       29.95S                  
ORLANDO EXEC   PTCLDY    65  57  75 N7        29.97S                  
LEESBURG       PTCLDY    58  53  84 N6        30.00S                  
SANFORD        NOT AVBL                                               
WINTER HAVEN   CLEAR     62  57  83 N7        29.98R                  
OKEECHOBEE       N/A     64  63  94 MISG        N/A                   
TAMPA          CLEAR     64  54  69 NE7       29.97R                  
$$
...NORTHERN FLORIDA...
  
CITY           SKY/WX    TMP DP  RH WIND       PRES   REMARKS
DELAND         PTCLDY    57  54  88 CALM      30.00R                  
PALM COAST     CLEAR     55  52  88 CALM      30.00R                  
ST AUGUSTINE   CLEAR     57  51  80 NW5       30.02R                  
OCALA          CLEAR     52  45  76 N5        30.01R                  
GAINESVILLE    CLEAR     49  46  90 CALM      30.02R                  
JACKSONVILLE   CLEAR     53  47  79 N8        30.03R                  
TALLAHASSEE    CLEAR     49  43  80 CALM      30.04S                  
$$
...ALONG THE SOUTHEAST COAST TO THE KEYS...
  
CITY           SKY/WX    TMP DP  RH WIND       PRES   REMARKS
STUART         CLOUDY    73  64  73 NE12      29.92S                  
WEST PALM BCH  HVY RAIN  73  72  96 SE7       29.90R FOG              
MIAMI          CLOUDY    74  73  97 CALM      29.88F                  
KEY WEST       CLOUDY    76  74  93 E12G20    29.84F                  
$$
...MARINE REPORTS...
  
STATION/POSITION TIME  TEMP    WIND        PRES    WAVE   SWELL
                       AIR SEA DIR/SP/G            HT/PER HT/PER/DIR
                 (UTC) (F)     (DEG/KT/KT) (MB)    (FT/S) (FT/S/D)
ST AUGUSTINE FP  1000   69      50/ 12/ 15 1016.6R
20NM E CAPE CANA 1000   74 81   40/ 12/ 16 1014.4S   3/ 6   2/ 10/ 6
120 E NEW SMYRNA 1000   73 81   30/ 10/ 14 1014.7R   5/ 7   3/340/ 7
TRIDENT PIER     1000   67 80   10/  5/  5 1013.9S
SEBASTIAN INLET  1000   74      40/ 15     1014.0S
4NM E PORT CANAV 1000      79                N/A     2/ 3
6NM NE FPR INLET 1000      80                N/A     3/ 4
SETTLEMENT PT GB 1000   78      50/ 16/ 19 1013.2R
$$
  
 


USA.gov is the U.S. government's official web portal to all federal, state and local government web resources and services.